DR0T Weather Reports


Display with metric or nautical units.
time (UTC)temp
F
wind
direction
speed
MPH
gust
MPH
rain 1hr
in
rain 24hr
in
rain mn
in
humidity
%
barometer
mb
20260507040227 44 251 4.0 7.0 0.00 0.59 0.21 99 1011.3
20260507035729 44 258 4.0 6.0 0.00 0.59 0.21 99 1011.2
20260507035224 44 248 3.0 7.0 0.00 0.59 0.21 99 1011.2
20260507034723 44 244 3.0 4.0 0.00 0.59 0.21 99 1011.1
20260507034221 44 252 3.0 4.0 0.00 0.59 0.21 99 1011.1
20260507033720 44 240 2.0 4.0 0.00 0.59 0.21 99 1011.2
20260507033223 44 249 1.0 3.0 0.00 0.59 0.21 99 1011.0
20260507032722 44 248 2.0 4.0 0.00 0.59 0.21 99 1011.0
20260507032218 44 244 2.0 4.0 0.00 0.59 0.21 99 1011.0
20260507031735 44 231 1.0 3.0 0.00 0.59 0.21 99 1011.0
20260507031234 44 230 1.0 3.0 0.00 0.59 0.21 99 1011.0
20260507030732 44 227 1.0 3.0 0.00 0.59 0.21 99 1010.9
20260507030231 44 238 2.0 4.0 0.00 0.59 0.21 99 1010.9
20260507025730 44 255 1.0 2.0 0.00 0.59 0.21 99 1010.9
20260507025231 44 233 1.0 2.0 0.00 0.59 0.21 99 1010.8
20260507024728 44 244 2.0 3.0 0.00 0.59 0.21 99 1010.9
20260507024228 44 243 2.0 4.0 0.00 0.59 0.21 99 1010.9
20260507023725 44 250 2.0 3.0 0.00 0.59 0.21 99 1010.8
20260507023224 44 252 2.0 4.0 0.00 0.59 0.21 99 1010.8
20260507022722 44 241 2.0 3.0 0.00 0.59 0.21 99 1010.7
20260507022221 44 233 1.0 2.0 0.00 0.59 0.21 99 1010.7
20260507021720 44 245 1.0 3.0 0.00 0.59 0.21 99 1010.6
20260507021221 44 238 2.0 3.0 0.00 0.59 0.21 99 1010.6
20260507020722 44 244 2.0 4.0 0.00 0.59 0.21 99 1010.5
20260507020216 44 243 2.0 4.0 0.00 0.59 0.21 99 1010.4
20260507015737 44 248 2.0 4.0 0.00 0.59 0.21 99 1010.5
20260507015234 44 249 3.0 4.0 0.00 0.59 0.21 99 1010.5
20260507014733 44 252 3.0 4.0 0.00 0.59 0.21 99 1010.4
20260507014232 45 245 3.0 6.0 0.00 0.59 0.21 99 1010.4
20260507013731 45 249 3.0 6.0 0.00 0.59 0.21 99 1010.3
20260507013230 45 248 3.0 4.0 0.00 0.59 0.21 99 1010.2
20260507012728 45 250 3.0 4.0 0.00 0.59 0.21 99 1010.2
20260507012229 45 250 3.0 4.0 0.00 0.59 0.21 99 1010.3
20260507011726 45 241 3.0 6.0 0.01 0.59 0.21 99 1010.1
20260507011228 45 246 3.0 4.0 0.01 0.59 0.21 99 1010.2
20260507010724 45 249 1.0 3.0 0.01 0.59 0.21 99 1010.2
20260507010226 46 253 1.0 2.0 0.02 0.59 0.21 99 1010.2
20260507005721 46 243 1.0 2.0 0.02 0.59 0.21 99 1010.2
20260507005219 46 248 2.0 3.0 0.03 0.59 0.21 99 1010.2
20260507004718 46 246 2.0 3.0 0.04 0.59 0.21 99 1010.2
20260507004217 46 243 2.0 4.0 0.04 0.59 0.21 99 1010.0
20260507003720 46 240 1.0 3.0 0.05 0.59 0.21 99 1010.0
20260507003234 46 220 0.0 1.0 0.06 0.59 0.21 99 1010.1
20260507002734 46 216 0.0 1.0 0.06 0.59 0.21 99 1010.2
20260507002233 46 216 0.0 1.0 0.07 0.59 0.21 99 1010.1
20260507001731 46 216 0.0 2.0 0.07 0.58 0.20 99 1010.2
20260507001230 46 0.0 0.0 0.07 0.58 0.20 99 1010.1
20260507000733 46 208 0.0 1.0 0.08 0.58 0.20 99 1010.2
20260507000231 46 331 0.0 3.0 0.07 0.57 0.19 99 1010.2
20260506235726 46 237 0.0 2.0 0.08 0.57 0.19 99 1010.3
20260506235225 46 222 0.0 2.0 0.08 0.56 0.18 99 1010.1
20260506234724 46 192 0.0 1.0 0.07 0.55 0.17 99 1010.3
20260506234222 47 0.0 0.0 0.08 0.55 0.17 99 1010.3
20260506233725 47 222 0.0 1.0 0.08 0.54 0.16 99 1010.3
20260506233224 47 220 0.0 2.0 0.08 0.53 0.15 99 1010.2
20260506232718 47 219 0.0 2.0 0.09 0.53 0.15 99 1010.2
20260506232218 47 219 0.0 2.0 0.09 0.52 0.14 99 1010.1
20260506231716 47 0.0 0.0 0.09 0.51 0.13 99 1010.1
20260506231237 47 256 1.0 2.0 0.11 0.51 0.13 99 1010.1
20260506230738 47 259 1.0 2.0 0.11 0.50 0.12 99 1010.0
20260506230232 47 240 1.0 4.0 0.12 0.50 0.12 99 1010.0
20260506225731 47 239 1.0 3.0 0.11 0.49 0.11 99 1009.9
20260506225230 47 241 2.0 3.0 0.11 0.48 0.10 99 1009.9
20260506224729 47 237 1.0 3.0 0.12 0.48 0.10 99 1010.0
20260506224228 47 236 1.0 3.0 0.11 0.47 0.09 99 1009.9
20260506223726 48 236 1.0 3.0 0.11 0.46 0.08 99 1009.9
20260506223225 48 242 1.0 2.0 0.10 0.45 0.07 99 1009.7
20260506222725 48 245 2.0 4.0 0.10 0.44 0.06 99 1009.7
20260506222223 48 243 1.0 2.0 0.09 0.43 0.05 99 1009.7
20260506221724 48 243 3.0 4.0 0.09 0.42 0.04 99 1009.6
20260506221227 48 245 3.0 4.0 0.07 0.40 0.02 99 1009.7
20260506220719 48 241 3.0 4.0 0.06 0.39 0.01 99 1009.5
20260506220218 49 243 2.0 3.0 0.06 0.38 0.38 99 1009.5
20260506215717 49 237 1.0 3.0 0.08 0.38 0.38 99 1009.5
20260506215216 49 235 1.0 2.0 0.08 0.37 0.37 99 1009.5
20260506214734 49 243 1.0 3.0 0.09 0.36 0.36 99 1009.5
20260506214235 49 239 2.0 3.0 0.10 0.37 0.36 99 1009.4
20260506213735 49 242 2.0 3.0 0.10 0.36 0.35 99 1009.5
20260506213231 49 246 2.0 3.0 0.11 0.36 0.35 99 1009.4
20260506212729 49 242 2.0 2.0 0.11 0.35 0.34 99 1009.3
20260506212229 49 242 2.0 3.0 0.12 0.36 0.34 99 1009.2
20260506211730 49 244 3.0 3.0 0.13 0.35 0.33 99 1009.3
20260506211226 49 246 3.0 3.0 0.14 0.36 0.33 99 1009.3
20260506210725 49 250 3.0 3.0 0.15 0.37 0.33 99 1009.3
20260506210225 49 253 2.0 3.0 0.15 0.37 0.32 99 1009.2
20260506205722 49 248 3.0 6.0 0.15 0.36 0.30 99 1009.2
20260506205220 49 248 3.0 4.0 0.15 0.36 0.29 99 1009.2
20260506204732 49 249 2.0 3.0 0.13 0.34 0.27 99 1009.1
20260506204218 49 244 0.0 2.0 0.13 0.33 0.26 99 1009.1
20260506203722 49 0.0 0.0 0.13 0.32 0.25 99 1009.2
20260506203235 50 0.0 0.0 0.12 0.32 0.24 99 1009.1
20260506202733 50 311 0.0 1.0 0.13 0.36 0.23 99 1009.1
20260506202232 50 311 0.0 1.0 0.13 0.36 0.22 99 1009.0
20260506201731 50 311 0.0 1.0 0.12 0.34 0.20 99 1008.9
20260506201238 50 307 0.0 3.0 0.11 0.33 0.19 99 1009.0
20260506200729 50 234 0.0 1.0 0.11 0.32 0.18 99 1009.0
20260506200227 50 234 1.0 3.0 0.10 0.31 0.17 99 1009.0
20260506195726 50 234 3.0 3.0 0.09 0.29 0.15 99 1008.8
20260506195229 50 234 2.0 3.0 0.11 0.28 0.14 99 1008.8
20260506194724 50 234 1.0 2.0 0.14 0.28 0.14 99 1008.7
20260506194222 50 234 2.0 3.0 0.13 0.27 0.13 99 1008.7
20260506193721 50 234 2.0 3.0 0.12 0.26 0.12 99 1008.6
20260506193220 50 234 3.0 3.0 0.12 0.26 0.12 99 1008.7
20260506192718 50 233 3.0 3.0 0.10 0.24 0.10 99 1008.5
20260506192221 50 230 2.0 3.0 0.09 0.23 0.09 99 1008.5
20260506191737 50 236 2.0 3.0 0.08 0.22 0.08 98 1008.4
20260506191234 50 223 2.0 3.0 0.08 0.22 0.08 98 1008.3
20260506190732 50 223 2.0 3.0 0.07 0.21 0.07 98 1008.3
20260506190230 50 234 2.0 3.0 0.07 0.21 0.07 98 1008.3
20260506185729 51 233 2.0 3.0 0.06 0.20 0.06 97 1008.4
20260506185228 51 239 3.0 3.0 0.03 0.17 0.03 96 1008.4
20260506184733 51 238 3.0 3.0 0.00 0.14 0.00 95 1008.3
20260506184225 51 244 2.0 3.0 0.00 0.14 0.00 94 1008.2
20260506183724 51 251 3.0 3.0 0.00 0.14 0.00 94 1008.1
20260506183227 51 250 4.0 6.0 0.00 0.14 0.00 94 1008.1
20260506182725 52 245 4.0 6.0 0.00 0.14 0.00 93 1008.0
20260506182220 52 250 5.0 7.0 0.00 0.14 0.00 93 1007.9
20260506181719 52 256 4.0 6.0 0.00 0.14 0.00 91 1008.0
20260506181218 52 246 5.0 7.0 0.00 0.14 0.00 91 1007.9
20260506180720 52 245 5.0 9.0 0.00 0.14 0.00 91 1007.7
20260506180238 52 247 5.0 6.0 0.00 0.14 0.00 92 1007.9
20260506175733 52 240 6.0 8.0 0.00 0.14 0.00 91 1007.8
20260506175232 52 249 5.0 8.0 0.00 0.14 0.00 91 1007.7
20260506174735 52 249 6.0 9.0 0.00 0.14 0.00 92 1007.7
20260506174229 52 244 5.0 7.0 0.00 0.14 0.00 92 1007.7
20260506173728 52 241 4.0 7.0 0.00 0.14 0.00 93 1007.5
20260506173227 52 227 3.0 6.0 0.00 0.14 0.00 93 1007.4
20260506172730 52 236 4.0 6.0 0.00 0.14 0.00 93 1007.3
20260506172228 52 235 4.0 7.0 0.00 0.14 0.00 92 1007.3
20260506171723 53 233 4.0 7.0 0.00 0.14 0.00 91 1007.1
20260506171222 53 228 2.0 6.0 0.00 0.14 0.00 91 1007.0
20260506170721 53 242 2.0 4.0 0.00 0.14 0.00 90 1007.1
20260506170219 53 227 3.0 7.0 0.00 0.14 0.00 89 1007.1
20260506165726 53 233 4.0 7.0 0.00 0.14 0.00 89 1007.1
20260506165217 54 230 4.0 7.0 0.00 0.14 0.00 88 1007.1
20260506164715 55 233 4.0 7.0 0.00 0.14 0.00 86 1007.0
20260506164237 55 226 4.0 7.0 0.00 0.14 0.00 85 1007.1
20260506163732 55 241 4.0 7.0 0.00 0.14 0.00 83 1007.0
20260506163230 57 239 5.0 8.0 0.00 0.14 0.00 79 1006.9
20260506162729 58 226 3.0 9.0 0.00 0.14 0.00 73 1007.0
20260506162228 57 236 4.0 7.0 0.00 0.14 0.00 71 1007.1
20260506161726 58 232 4.0 7.0 0.00 0.14 0.00 72 1007.0
20260506161229 58 243 6.0 8.0 0.00 0.14 0.00 72 1007.1
20260506160726 57 236 4.0 8.0 0.00 0.14 0.00 73 1007.1
20260506160223 57 242 6.0 10.0 0.00 0.14 0.00 73 1007.1
20260506155722 57 254 5.0 7.0 0.00 0.14 0.00 74 1007.2
20260506155221 57 250 5.0 8.0 0.00 0.14 0.00 74 1007.2
20260506154720 57 258 6.0 8.0 0.00 0.14 0.00 74 1007.3
20260506154219 57 260 6.0 8.0 0.00 0.14 0.00 74 1007.3
20260506153721 58 257 5.0 8.0 0.00 0.14 0.00 74 1007.2
20260506153216 57 252 6.0 8.0 0.00 0.14 0.00 74 1007.2
20260506152735 57 254 7.0 8.0 0.00 0.14 0.00 73 1007.3
20260506152233 57 247 5.0 7.0 0.00 0.14 0.00 74 1007.2
20260506151732 57 252 5.0 7.0 0.00 0.14 0.00 73 1007.1
20260506151233 57 243 5.0 7.0 0.00 0.14 0.00 73 1007.1
20260506150732 57 243 4.0 7.0 0.00 0.14 0.00 73 1007.1
20260506150229 57 260 6.0 7.0 0.00 0.14 0.00 72 1007.0
20260506145728 57 246 5.0 7.0 0.00 0.14 0.00 72 1007.0
20260506145228 57 244 5.0 8.0 0.00 0.14 0.00 72 1007.0
20260506144727 57 249 4.0 6.0 0.00 0.14 0.00 72 1006.8
20260506144223 58 242 4.0 7.0 0.00 0.14 0.00 72 1006.8
20260506143722 58 252 4.0 6.0 0.00 0.14 0.00 72 1006.8
20260506143221 58 238 5.0 7.0 0.00 0.14 0.00 72 1006.8
20260506142720 58 249 4.0 7.0 0.00 0.14 0.00 71 1006.8
20260506142219 58 250 4.0 6.0 0.00 0.14 0.00 71 1006.8
20260506141720 58 246 4.0 6.0 0.00 0.14 0.00 71 1006.8
20260506141216 58 248 4.0 6.0 0.00 0.14 0.00 71 1006.8
20260506140735 58 240 3.0 4.0 0.00 0.14 0.00 70 1006.9
20260506140240 58 247 3.0 4.0 0.00 0.14 0.00 70 1006.9
20260506135734 58 247 5.0 8.0 0.00 0.14 0.00 70 1007.0
20260506135233 58 251 5.0 8.0 0.00 0.14 0.00 70 1007.0
20260506134730 57 248 3.0 6.0 0.00 0.14 0.00 69 1006.9
20260506134228 58 259 4.0 7.0 0.00 0.14 0.00 69 1006.9
20260506133726 58 251 5.0 8.0 0.00 0.14 0.00 71 1007.0
20260506133226 58 244 5.0 6.0 0.00 0.14 0.00 70 1006.9
20260506132724 58 239 6.0 8.0 0.00 0.14 0.00 70 1006.9
20260506132225 58 255 4.0 7.0 0.00 0.14 0.00 69 1006.8
20260506131723 58 249 4.0 7.0 0.00 0.14 0.00 70 1006.9
20260506131220 58 249 3.0 6.0 0.00 0.14 0.00 70 1006.9
20260506130719 59 241 5.0 7.0 0.00 0.14 0.00 70 1007.0
20260506130218 58 248 4.0 6.0 0.00 0.14 0.00 70 1006.9
20260506125721 59 254 5.0 7.0 0.00 0.14 0.00 70 1006.9
20260506125216 60 250 5.0 8.0 0.00 0.14 0.00 70 1006.9
20260506124740 60 253 6.0 9.0 0.00 0.14 0.00 69 1006.8
20260506124233 60 254 4.0 7.0 0.00 0.14 0.00 70 1006.7
20260506123732 58 258 4.0 7.0 0.00 0.14 0.00 72 1006.7
20260506123231 58 259 5.0 7.0 0.00 0.14 0.00 72 1006.8
20260506122734 58 253 5.0 7.0 0.00 0.14 0.00 73 1006.8
20260506122232 58 256 5.0 7.0 0.00 0.14 0.00 72 1006.9
20260506121728 58 232 6.0 11.0 0.00 0.14 0.00 70 1006.7
20260506121226 57 251 5.0 8.0 0.00 0.14 0.00 71 1006.8
20260506120727 57 259 6.0 11.0 0.00 0.14 0.00 72 1006.9
20260506120224 57 252 7.0 9.0 0.00 0.14 0.00 73 1006.9
20260506115723 57 249 7.0 10.0 0.00 0.14 0.00 75 1007.0
20260506115221 57 255 7.0 10.0 0.00 0.14 0.00 76 1006.9
20260506114721 57 261 7.0 9.0 0.00 0.14 0.00 77 1007.0
20260506114222 57 253 6.0 10.0 0.00 0.14 0.00 77 1007.0
20260506113717 56 239 6.0 9.0 0.00 0.14 0.00 78 1007.2
20260506113216 56 237 5.0 8.0 0.00 0.14 0.00 79 1007.3
20260506112734 56 254 7.0 9.0 0.00 0.14 0.00 79 1007.3
20260506112237 56 247 5.0 8.0 0.00 0.14 0.00 79 1007.3
20260506111732 56 229 2.0 4.0 0.00 0.14 0.00 77 1007.3
20260506111235 57 229 2.0 8.0 0.00 0.14 0.00 77 1007.3
20260506110730 57 232 5.0 8.0 0.00 0.14 0.00 76 1007.3
20260506110230 56 250 6.0 9.0 0.00 0.14 0.00 78 1007.3
20260506105727 56 245 6.0 9.0 0.00 0.14 0.00 78 1007.3
20260506105226 57 246 6.0 9.0 0.00 0.14 0.00 77 1007.3
20260506104725 57 245 6.0 10.0 0.00 0.14 0.00 74 1007.2
20260506104223 57 243 5.0 10.0 0.00 0.14 0.00 76 1007.3
20260506103728 57 250 6.0 9.0 0.00 0.14 0.00 77 1007.4
20260506103221 56 249 8.0 10.0 0.00 0.14 0.00 76 1007.3
20260506102720 55 256 7.0 9.0 0.00 0.14 0.00 78 1007.3
20260506102219 56 254 7.0 11.0 0.00 0.14 0.00 78 1007.3
20260506101717 56 253 7.0 10.0 0.00 0.14 0.00 78 1007.2
20260506101222 56 254 7.0 10.0 0.00 0.14 0.00 78 1007.3
20260506100735 56 252 6.0 8.0 0.00 0.14 0.00 78 1007.3
20260506100234 56 257 6.0 9.0 0.00 0.14 0.00 80 1007.3
20260506095733 57 243 6.0 9.0 0.00 0.14 0.00 79 1007.2
20260506095232 57 235 5.0 7.0 0.00 0.14 0.00 81 1007.3
20260506094736 56 249 4.0 9.0 0.00 0.14 0.00 81 1007.3
20260506094229 56 208 6.0 9.0 0.00 0.14 0.00 80 1007.2
20260506093728 56 244 5.0 8.0 0.00 0.14 0.00 83 1007.3
20260506093226 56 244 5.0 9.0 0.00 0.14 0.00 85 1007.3
20260506092726 55 230 4.0 8.0 0.00 0.14 0.00 84 1007.2
20260506092224 55 256 4.0 7.0 0.00 0.14 0.00 85 1007.3
20260506091726 55 239 5.0 7.0 0.00 0.14 0.00 84 1007.4
20260506091225 55 237 5.0 7.0 0.00 0.14 0.00 85 1007.3
20260506090720 55 259 6.0 8.0 0.00 0.14 0.00 85 1007.2
20260506090220 54 250 5.0 8.0 0.00 0.14 0.00 87 1007.3
20260506085717 54 262 7.0 9.0 0.00 0.14 0.00 86 1007.3
20260506085216 54 258 6.0 8.0 0.00 0.14 0.00 86 1007.2
20260506084735 54 248 6.0 9.0 0.00 0.14 0.00 86 1007.1
20260506084234 54 246 5.0 7.0 0.00 0.14 0.00 87 1007.2
20260506083734 54 248 5.0 7.0 0.00 0.14 0.00 88 1007.3
20260506083231 52 255 6.0 8.0 0.00 0.14 0.00 88 1007.1
20260506082732 53 254 6.0 8.0 0.00 0.14 0.00 89 1007.1
20260506082229 53 252 6.0 8.0 0.00 0.14 0.00 89 1006.9
20260506081728 53 254 6.0 8.0 0.00 0.14 0.00 89 1007.0
20260506081226 54 249 6.0 9.0 0.00 0.14 0.00 89 1006.9
20260506080725 54 251 5.0 8.0 0.00 0.14 0.00 91 1006.8
20260506080226 53 249 4.0 6.0 0.00 0.14 0.00 91 1006.8
20260506073217 53 243 3.0 6.0 0.00 0.14 0.00 92 1006.9
20260506072736 52 252 4.0 6.0 0.00 0.14 0.00 94 1006.9
20260506072234 52 241 4.0 6.0 0.00 0.14 0.00 94 1006.9
20260506071733 52 250 5.0 6.0 0.00 0.14 0.00 95 1006.9
20260506071232 52 247 5.0 8.0 0.00 0.14 0.00 95 1007.0
20260506070735 51 234 4.0 7.0 0.00 0.14 0.00 96 1007.0
20260506070230 52 239 4.0 7.0 0.00 0.14 0.00 95 1007.0
20260506062220 51 243 5.0 8.0 0.00 0.14 0.00 95 1006.9
20260506061718 51 248 6.0 8.0 0.00 0.14 0.00 95 1006.7
20260506061217 51 250 5.0 6.0 0.00 0.14 0.00 95 1006.8
20260506060718 51 252 5.0 6.0 0.00 0.14 0.00 96 1006.8
20260506060238 51 253 5.0 6.0 0.00 0.14 0.00 96 1007.0
20260506051222 50 249 5.0 7.0 0.00 0.14 0.00 98 1007.2
20260506050725 50 247 5.0 7.0 0.00 0.14 0.00 98 1007.2
20260506050219 50 247 5.0 8.0 0.00 0.14 0.00 97 1007.2
20260506044716 50 240 6.0 10.0 0.00 0.14 0.00 97 1007.0
20260506044235 50 249 6.0 8.0 0.00 0.14 0.00 98 1007.0
20260506043735 50 254 4.0 7.0 0.00 0.14 0.00 99 1007.0
20260506043239 50 245 4.0 4.0 0.00 0.14 0.00 99 1007.1
20260506042731 50 245 4.0 7.0 0.00 0.14 0.00 99 1007.1
20260506042229 50 247 4.0 6.0 0.00 0.14 0.00 99 1007.0
20260506041728 50 250 5.0 7.0 0.00 0.14 0.00 99 1006.9
20260506041231 50 248 4.0 6.0 0.00 0.14 0.00 99 1007.0
20260506040726 50 250 4.0 7.0 0.00 0.14 0.00 99 1007.0